Year,Month,Day,Hour,Minute,Value (Times are PST for temperature in C)
2008,07,28,11,14,15.90
2008,07,28,11,15,15.90
2008,07,28,11,16,15.90
2008,07,28,11,17,15.90
2008,07,28,11,18,15.90
2008,07,28,11,19,15.90
2008,07,28,11,20,16.00
2008,07,28,11,21,16.10
2008,07,28,11,22,16.10
2008,07,28,11,23,16.00
2008,07,28,11,24,15.90
2008,07,28,11,25,15.80
2008,07,28,11,26,15.70
2008,07,28,11,27,15.60
2008,07,28,11,28,15.60
2008,07,28,11,29,15.60
2008,07,28,11,30,15.70
2008,07,28,11,31,15.80
2008,07,28,11,32,15.80
2008,07,28,11,33,15.80
2008,07,28,11,34,15.70
2008,07,28,11,35,15.70
2008,07,28,11,36,15.80
2008,07,28,11,37,15.80
2008,07,28,11,38,15.90
2008,07,28,11,39,16.10
2008,07,28,11,40,16.20
2008,07,28,11,41,16.30
2008,07,28,11,42,16.40
2008,07,28,11,43,16.40
2008,07,28,11,44,16.30
2008,07,28,11,45,16.20
2008,07,28,11,46,16.10
2008,07,28,11,47,15.90
2008,07,28,11,48,15.80
2008,07,28,11,49,15.70
2008,07,28,11,50,15.70
2008,07,28,11,51,15.80
2008,07,28,11,52,15.80
2008,07,28,11,53,15.80
2008,07,28,11,54,15.80
2008,07,28,11,55,15.80
2008,07,28,11,56,15.80
2008,07,28,11,57,15.80
2008,07,28,11,58,15.80
2008,07,28,11,59,15.90
2008,07,28,12,00,16.00
2008,07,28,12,01,16.10
2008,07,28,12,02,16.20
2008,07,28,12,03,16.20
2008,07,28,12,04,16.30
2008,07,28,12,05,16.30
2008,07,28,12,06,16.40
2008,07,28,12,07,16.60
2008,07,28,12,08,16.60
2008,07,28,12,09,16.70
2008,07,28,12,10,16.70
2008,07,28,12,11,16.70
2008,07,28,12,12,16.70
2008,07,28,12,13,16.70
2008,07,28,12,14,16.70
2008,07,28,12,15,16.70
2008,07,28,12,16,16.70
2008,07,28,12,17,16.70
2008,07,28,12,18,16.80
2008,07,28,12,19,16.80
2008,07,28,12,20,16.90
2008,07,28,12,21,17.00
2008,07,28,12,22,17.00
2008,07,28,12,23,17.20
2008,07,28,12,24,17.20
2008,07,28,12,25,17.20
2008,07,28,12,26,17.30
2008,07,28,12,27,17.30
2008,07,28,12,28,17.30
2008,07,28,12,29,17.30
2008,07,28,12,30,17.50
2008,07,28,12,31,17.40
2008,07,28,12,32,17.40
2008,07,28,12,33,17.40
2008,07,28,12,34,17.40
2008,07,28,12,35,17.30
2008,07,28,12,36,17.30
2008,07,28,12,37,17.30
2008,07,28,12,38,17.30
2008,07,28,12,39,17.20
2008,07,28,12,40,17.10
2008,07,28,12,41,17.10
2008,07,28,12,42,17.10
2008,07,28,12,43,17.10
2008,07,28,12,44,17.20
2008,07,28,12,45,17.20
2008,07,28,12,46,17.20
2008,07,28,12,47,17.20
2008,07,28,12,48,17.00
2008,07,28,12,49,16.80
2008,07,28,12,50,16.80
2008,07,28,12,51,16.80
2008,07,28,12,52,16.80
2008,07,28,12,53,16.90
2008,07,28,12,54,17.00
2008,07,28,12,55,17.20
2008,07,28,12,56,17.30
2008,07,28,12,57,17.40
2008,07,28,12,58,17.40
2008,07,28,12,59,17.40
2008,07,28,13,00,17.40
2008,07,28,13,01,17.40
2008,07,28,13,02,17.60
2008,07,28,13,03,17.50
2008,07,28,13,04,17.70
2008,07,28,13,05,17.80
2008,07,28,13,06,17.90
2008,07,28,13,07,17.80
2008,07,28,13,08,17.80
2008,07,28,13,09,17.80
2008,07,28,13,10,17.90
2008,07,28,13,11,18.10
2008,07,28,13,12,18.20
2008,07,28,13,13,18.20
2008,07,28,13,14,18.20
2008,07,28,13,15,18.20
2008,07,28,13,16,18.20
2008,07,28,13,17,18.20
2008,07,28,13,18,18.10
2008,07,28,13,19,18.00
2008,07,28,13,20,17.90
2008,07,28,13,21,17.80
2008,07,28,13,22,17.70
2008,07,28,13,23,17.60
2008,07,28,13,24,17.40
2008,07,28,13,25,17.50
2008,07,28,13,26,17.50
2008,07,28,13,27,17.40
2008,07,28,13,28,17.40
2008,07,28,13,29,17.40
2008,07,28,13,30,17.50
2008,07,28,13,31,17.60
2008,07,28,13,32,17.60
2008,07,28,13,33,17.60
2008,07,28,13,34,17.70
2008,07,28,13,35,17.70
2008,07,28,13,36,17.60
2008,07,28,13,37,17.70
2008,07,28,13,38,17.70
2008,07,28,13,39,17.70
2008,07,28,13,40,17.80
2008,07,28,13,41,17.80
2008,07,28,13,42,17.80
2008,07,28,13,43,17.70
2008,07,28,13,44,17.70
2008,07,28,13,45,17.70
2008,07,28,13,46,17.70
2008,07,28,13,47,17.60
2008,07,28,13,48,17.50
2008,07,28,13,49,17.50
2008,07,28,13,50,17.40
2008,07,28,13,51,17.50
2008,07,28,13,52,17.60
2008,07,28,13,53,17.70
2008,07,28,13,54,17.70
2008,07,28,13,55,17.70
2008,07,28,13,56,17.80
2008,07,28,13,57,17.90
2008,07,28,13,58,18.10
2008,07,28,13,59,18.20
2008,07,28,14,00,18.10
2008,07,28,14,01,18.10
2008,07,28,14,02,17.90
2008,07,28,14,03,17.90
2008,07,28,14,04,17.90
2008,07,28,14,05,17.90
2008,07,28,14,06,17.70
2008,07,28,14,07,17.60
2008,07,28,14,08,17.60
2008,07,28,14,09,17.50
2008,07,28,14,10,17.50
2008,07,28,14,11,17.50
2008,07,28,14,12,17.60
2008,07,28,14,13,17.70
2008,07,28,14,14,17.70
2008,07,28,14,15,17.70
2008,07,28,14,16,17.70
2008,07,28,14,17,17.80
2008,07,28,14,18,17.90
2008,07,28,14,19,17.90
2008,07,28,14,20,17.80
2008,07,28,14,21,17.70
2008,07,28,14,22,17.60
2008,07,28,14,23,17.50
2008,07,28,14,24,17.60
2008,07,28,14,25,17.60
2008,07,28,14,26,17.60
2008,07,28,14,27,17.70
2008,07,28,14,28,17.80
2008,07,28,14,29,17.80
2008,07,28,14,30,17.80
2008,07,28,14,31,17.70
2008,07,28,14,32,17.80
2008,07,28,14,33,17.80
2008,07,28,14,34,17.90
2008,07,28,14,35,17.90
2008,07,28,14,36,17.90
2008,07,28,14,37,17.90
2008,07,28,14,38,17.90
2008,07,28,14,39,17.90
2008,07,28,14,40,17.90
2008,07,28,14,41,17.70
2008,07,28,14,42,17.70
2008,07,28,14,43,17.70
2008,07,28,14,44,17.80
2008,07,28,14,45,17.80
2008,07,28,14,46,17.80
2008,07,28,14,47,17.80
2008,07,28,14,48,17.80
2008,07,28,14,49,17.80
2008,07,28,14,50,17.70
2008,07,28,14,51,17.70
2008,07,28,14,52,17.70
2008,07,28,14,53,17.80
2008,07,28,14,54,17.70
2008,07,28,14,55,17.70
2008,07,28,14,56,17.80
2008,07,28,14,57,17.80
2008,07,28,14,58,17.70
2008,07,28,14,59,17.80
2008,07,28,15,00,17.80
2008,07,28,15,01,17.80
2008,07,28,15,02,17.90
2008,07,28,15,03,17.90
2008,07,28,15,04,18.00
2008,07,28,15,05,18.10
2008,07,28,15,06,18.20
2008,07,28,15,07,18.40
2008,07,28,15,08,18.50
2008,07,28,15,09,18.50
2008,07,28,15,10,18.60
2008,07,28,15,11,18.80
2008,07,28,15,12,18.90
2008,07,28,15,13,19.00
2008,07,28,15,14,18.90
2008,07,28,15,15,18.70
2008,07,28,15,16,18.70
2008,07,28,15,17,18.60
2008,07,28,15,18,18.50
2008,07,28,15,19,18.60
2008,07,28,15,20,18.60
2008,07,28,15,21,18.70
2008,07,28,15,22,18.70
2008,07,28,15,23,18.70
2008,07,28,15,24,18.70
2008,07,28,15,25,18.80
2008,07,28,15,26,18.90
2008,07,28,15,27,18.90
2008,07,28,15,28,19.00
2008,07,28,15,29,18.80
2008,07,28,15,30,18.60
2008,07,28,15,31,18.40
2008,07,28,15,32,18.30
2008,07,28,15,33,18.30
2008,07,28,15,34,18.30
2008,07,28,15,35,18.20
2008,07,28,15,36,18.20
2008,07,28,15,37,18.20
2008,07,28,15,38,18.20
2008,07,28,15,39,18.20
2008,07,28,15,40,18.20
2008,07,28,15,41,18.20
2008,07,28,15,42,18.20
2008,07,28,15,43,18.20
2008,07,28,15,44,18.20
2008,07,28,15,45,18.30
2008,07,28,15,46,18.20
2008,07,28,15,47,18.20
2008,07,28,15,48,18.10
2008,07,28,15,49,17.90
2008,07,28,15,50,17.70
2008,07,28,15,51,17.50
2008,07,28,15,52,17.30
2008,07,28,15,53,17.30
2008,07,28,15,54,17.30
2008,07,28,15,55,17.20
2008,07,28,15,56,17.20
2008,07,28,15,57,17.20
2008,07,28,15,58,17.20
2008,07,28,15,59,17.20
2008,07,28,16,00,17.30
2008,07,28,16,01,17.20
2008,07,28,16,02,17.20
2008,07,28,16,03,17.20
2008,07,28,16,04,17.20
2008,07,28,16,05,17.20
2008,07,28,16,06,17.20
2008,07,28,16,07,17.20
2008,07,28,16,08,17.20
2008,07,28,16,09,17.20
2008,07,28,16,10,16.80
2008,07,28,16,11,16.90
2008,07,28,16,12,17.00
2008,07,28,16,13,17.00
2008,07,28,16,14,17.00
2008,07,28,16,15,16.90
2008,07,28,16,16,16.90
2008,07,28,16,17,16.90
2008,07,28,16,18,17.00
2008,07,28,16,19,17.00
2008,07,28,16,20,16.90
2008,07,28,16,21,16.70
2008,07,28,16,22,16.70
2008,07,28,16,23,16.70
2008,07,28,16,24,16.70
2008,07,28,16,25,16.80
2008,07,28,16,26,16.90
2008,07,28,16,27,17.00
2008,07,28,16,28,17.10
2008,07,28,16,29,17.10
2008,07,28,16,30,17.00
2008,07,28,16,31,17.00
2008,07,28,16,32,16.90
2008,07,28,16,33,16.80
2008,07,28,16,34,16.90
2008,07,28,16,35,16.90
2008,07,28,16,36,16.90
2008,07,28,16,37,16.90
2008,07,28,16,38,16.80
2008,07,28,16,39,16.70
2008,07,28,16,40,16.70
2008,07,28,16,41,16.70
2008,07,28,16,42,16.70
2008,07,28,16,43,16.70
2008,07,28,16,44,16.70
2008,07,28,16,45,16.70
2008,07,28,16,46,16.70
2008,07,28,16,47,16.80
2008,07,28,16,48,16.80
2008,07,28,16,49,16.90
2008,07,28,16,50,16.90
2008,07,28,16,51,17.00
2008,07,28,16,52,17.10
2008,07,28,16,53,17.10
2008,07,28,16,54,17.10
2008,07,28,16,55,17.20
2008,07,28,16,56,17.30
2008,07,28,16,57,17.30
2008,07,28,16,58,17.30
2008,07,28,16,59,17.30
2008,07,28,17,00,17.30
2008,07,28,17,01,17.40
2008,07,28,17,02,17.40
2008,07,28,17,03,17.50
2008,07,28,17,04,17.60
2008,07,28,17,05,17.70
2008,07,28,17,06,17.80
2008,07,28,17,07,17.80
2008,07,28,17,08,17.90
2008,07,28,17,09,17.90
2008,07,28,17,10,17.80
2008,07,28,17,11,17.80
2008,07,28,17,12,17.70
2008,07,28,17,13,17.70
2008,07,28,17,14,17.70
2008,07,28,17,15,17.70
2008,07,28,17,16,17.80
2008,07,28,17,17,17.90
2008,07,28,17,18,17.90
2008,07,28,17,19,17.90
2008,07,28,17,20,17.90
2008,07,28,17,21,17.90
2008,07,28,17,22,18.00
2008,07,28,17,23,18.10
2008,07,28,17,24,17.90
2008,07,28,17,25,17.90
2008,07,28,17,26,17.90
2008,07,28,17,27,17.80
2008,07,28,17,28,17.80
2008,07,28,17,29,17.80
2008,07,28,17,30,17.80
2008,07,28,17,31,17.80
2008,07,28,17,32,17.70
2008,07,28,17,33,17.70
2008,07,28,17,34,17.70
2008,07,28,17,35,17.70
2008,07,28,17,36,17.60
2008,07,28,17,37,17.50
2008,07,28,17,38,17.50
2008,07,28,17,39,17.40
2008,07,28,17,40,17.40
2008,07,28,17,41,17.40
2008,07,28,17,42,17.30
2008,07,28,17,43,17.30
2008,07,28,17,44,17.20
2008,07,28,17,45,17.20
2008,07,28,17,46,17.20
2008,07,28,17,47,17.20
2008,07,28,17,48,17.20
2008,07,28,17,49,17.10
2008,07,28,17,50,17.10
2008,07,28,17,51,17.10
2008,07,28,17,52,17.00
2008,07,28,17,53,17.00
2008,07,28,17,54,17.00
2008,07,28,17,55,17.10
2008,07,28,17,56,17.10
2008,07,28,17,57,17.10
2008,07,28,17,58,17.10
2008,07,28,17,59,17.10
2008,07,28,18,00,17.10
2008,07,28,18,01,17.10
2008,07,28,18,02,17.10
2008,07,28,18,03,17.10
2008,07,28,18,04,17.10
2008,07,28,18,05,17.10
2008,07,28,18,06,17.30
2008,07,28,18,07,17.30
2008,07,28,18,08,17.30
2008,07,28,18,09,17.30
2008,07,28,18,10,17.30
2008,07,28,18,11,17.30
2008,07,28,18,12,17.30
2008,07,28,18,13,17.30
2008,07,28,18,14,17.20
2008,07,28,18,15,17.10
2008,07,28,18,16,17.10
2008,07,28,18,17,17.00
2008,07,28,18,18,17.00
2008,07,28,18,19,17.00
2008,07,28,18,20,17.00
2008,07,28,18,21,17.00
2008,07,28,18,22,17.00
2008,07,28,18,23,17.00
2008,07,28,18,24,17.00
2008,07,28,18,25,16.90
2008,07,28,18,26,16.90
2008,07,28,18,27,16.90
2008,07,28,18,28,16.90
2008,07,28,18,29,16.90
2008,07,28,18,30,16.90
2008,07,28,18,31,16.90
2008,07,28,18,32,16.90
2008,07,28,18,33,16.90
2008,07,28,18,34,16.90
2008,07,28,18,35,16.90
2008,07,28,18,36,16.90
2008,07,28,18,37,16.90
2008,07,28,18,38,16.90
2008,07,28,18,39,16.90
2008,07,28,18,40,16.90
2008,07,28,18,41,16.90
2008,07,28,18,42,16.90
2008,07,28,18,43,16.90
2008,07,28,18,44,16.90
2008,07,28,18,45,16.90
2008,07,28,18,46,16.80
2008,07,28,18,47,16.80
2008,07,28,18,48,16.70
2008,07,28,18,49,16.70
2008,07,28,18,50,16.60
2008,07,28,18,51,16.50
2008,07,28,18,52,16.40
2008,07,28,18,53,16.30
2008,07,28,18,54,16.20
2008,07,28,18,55,16.20
2008,07,28,18,56,16.10
2008,07,28,18,57,16.10
2008,07,28,18,58,16.10
2008,07,28,18,59,16.10
2008,07,28,19,00,16.10
2008,07,28,19,01,16.00
2008,07,28,19,02,15.90
2008,07,28,19,03,15.90
2008,07,28,19,04,15.80
2008,07,28,19,05,15.80
2008,07,28,19,06,15.80
2008,07,28,19,07,15.80
2008,07,28,19,08,15.80
2008,07,28,19,09,15.80
2008,07,28,19,10,15.80
2008,07,28,19,11,15.80
2008,07,28,19,12,15.70
2008,07,28,19,13,15.70
2008,07,28,19,14,15.60
2008,07,28,19,15,15.60
2008,07,28,19,16,15.50
2008,07,28,19,17,15.50
2008,07,28,19,18,15.40
2008,07,28,19,19,15.40
2008,07,28,19,20,15.30
2008,07,28,19,21,15.30
2008,07,28,19,22,15.30
2008,07,28,19,23,15.30
2008,07,28,19,24,15.20
2008,07,28,19,25,15.20
2008,07,28,19,26,15.10
2008,07,28,19,27,15.10
2008,07,28,19,28,15.00
2008,07,28,19,29,15.00
2008,07,28,19,30,15.00
2008,07,28,19,31,14.90
2008,07,28,19,32,14.90
2008,07,28,19,33,14.80
2008,07,28,19,34,14.80
2008,07,28,19,35,14.80
2008,07,28,19,36,14.80
2008,07,28,19,37,14.80
2008,07,28,19,38,14.80
2008,07,28,19,39,14.80
2008,07,28,19,40,14.80
2008,07,28,19,41,14.80
2008,07,28,19,42,14.80
2008,07,28,19,43,14.80
2008,07,28,19,44,14.80
2008,07,28,19,45,14.80
2008,07,28,19,46,14.80
2008,07,28,19,47,14.80
2008,07,28,19,48,14.90
2008,07,28,19,49,14.90
2008,07,28,19,50,14.90
2008,07,28,19,51,14.90
2008,07,28,19,52,14.90
2008,07,28,19,53,14.90
2008,07,28,19,54,14.80
2008,07,28,19,55,14.80
2008,07,28,19,56,14.80
2008,07,28,19,57,14.80
2008,07,28,19,58,14.80
2008,07,28,19,59,14.80
2008,07,28,20,00,14.80
2008,07,28,20,01,14.80
2008,07,28,20,02,14.80
2008,07,28,20,03,14.80
2008,07,28,20,04,14.80
2008,07,28,20,05,14.80
2008,07,28,20,06,14.80
2008,07,28,20,07,14.80
2008,07,28,20,08,14.80
2008,07,28,20,09,14.90
2008,07,28,20,10,14.80
2008,07,28,20,11,14.80
2008,07,28,20,12,14.80
2008,07,28,20,13,14.80
2008,07,28,20,14,14.80
2008,07,28,20,15,14.80
2008,07,28,20,16,14.80
2008,07,28,20,17,14.80
2008,07,28,20,18,14.80
2008,07,28,20,19,14.80
2008,07,28,20,20,14.80
2008,07,28,20,21,14.80
2008,07,28,20,22,14.80
2008,07,28,20,23,14.70
2008,07,28,20,24,14.70
2008,07,28,20,25,14.70
2008,07,28,20,26,14.70
2008,07,28,20,27,14.70
2008,07,28,20,28,14.70
2008,07,28,20,29,14.80
2008,07,28,20,30,14.80
2008,07,28,20,31,14.70
2008,07,28,20,32,14.70
2008,07,28,20,33,14.70
2008,07,28,20,34,14.70
2008,07,28,20,35,14.70
2008,07,28,20,36,14.70
2008,07,28,20,37,14.70
2008,07,28,20,38,14.70
2008,07,28,20,39,14.70
2008,07,28,20,40,14.70
2008,07,28,20,41,14.70
2008,07,28,20,42,14.70
2008,07,28,20,43,14.70
2008,07,28,20,44,14.70
2008,07,28,20,45,14.70
2008,07,28,20,46,14.70
2008,07,28,20,47,14.70
